Location: Newark
(19.4083°N, 89.7712°W)
Time: 17:30:08
(UTC+00:00)

ISS - Visible Passes

Search period start: 17 July 2019 00:00
Search period end: 27 July 2019 00:00
Orbit: 409 x 418 km, 51.6° (Epoch: 18 July)

Date Brightness Start Highest point End Pass type
(mag) Time Alt. Az. Time Alt. Az. Time Alt. Az.
17 Jul -3.8 01:34:26 10° SW 01:37:46 88° NW 01:41:06 10° NE visible
18 Jul -0.1 02:24:39 10° NW 02:25:16 10° NW 02:25:54 10° NNW visible
18 Jul -2.8 10:35:50 10° NNW 10:39:02 49° NE 10:42:14 10° SE visible
19 Jul -0.8 01:33:16 10° W 01:35:51 21° NW 01:38:26 10° N visible
19 Jul -1.2 09:47:04 10° N 09:49:43 22° NE 09:52:20 10° E visible
20 Jul -0.3 08:59:58 11° NE 09:00:17 11° NE 09:01:19 10° ENE visible
20 Jul -3.1 10:34:00 10° WNW 10:36:58 32° SW 10:39:57 10° S visible
